Tracking 20942 objects as of 14-Jul-2020
HD Live streaming from Space Station
objects crossing your sky now

COSMOS 450

Track COSMOS 450 now!
10-day predictions
COSMOS 450 is classified as:


NORAD ID: 5553
Int'l Code: 1971-086G
Perigee: 1,469.0 km
Apogee: 1,536.0 km
Inclination: 74.0 °
Period: 115.9 minutes
Semi major axis: 7873 km
RCS: 0.7187 m2 (medium)
Launch date: October 13, 1971
Source: Commonwealth of Independent States (former USSR) (CIS)
Launch site: PLESETSK MISSILE AND SPACE COMPLEX (PKMTR)
aabbcc
Your satellite tracking list
Your tracking list is empty




NASA's NSSDC Master Catalog

Two Line Element Set (TLE):
1  5553U 71086G   20195.57003758 -.00000019  00000-0 -28377-4 0  9995
2  5553  74.0289 298.3167 0042520  54.4822 317.5517 12.42662767211730
Source of the keplerian elements: AFSPC